Time,TemperatureF,DewpointF,PressureIn,WindDirection,WindDirectionDegrees,WindSpeedMPH,WindSpeedGustMPH,Humidity,HourlyPrecipIn,Conditions,Clouds,dailyrainin,SoftwareType,DateUTC
2013-06-09 00:01:00,58.9,48.7,29.95,ENE,68,5.1,6.5,69,0.00,,,0.00,WUHU216HW,2013-06-09 05:01:00,
2013-06-09 00:06:00,58.9,48.7,29.95,ESE,113,5.8,6.0,69,0.00,,,0.00,WUHU216HW,2013-06-09 05:06:00,
2013-06-09 00:11:00,58.7,48.5,29.95,ESE,113,5.4,6.0,69,0.00,,,0.00,WUHU216HW,2013-06-09 05:11:00,
2013-06-09 00:16:00,58.7,48.5,29.95,ESE,113,4.0,6.0,69,0.00,,,0.00,WUHU216HW,2013-06-09 05:16:00,
2013-06-09 00:21:00,58.5,48.3,29.95,SE,135,4.7,5.8,69,0.00,,,0.00,WUHU216HW,2013-06-09 05:21:00,
2013-06-09 00:26:00,58.3,48.2,29.96,SE,135,5.1,5.8,69,0.00,,,0.00,WUHU216HW,2013-06-09 05:26:00,
2013-06-09 00:31:00,58.3,48.2,29.96,ESE,113,5.1,7.6,69,0.00,,,0.00,WUHU216HW,2013-06-09 05:31:00,
2013-06-09 00:36:00,58.1,48.4,29.96,ESE,113,3.4,7.6,70,0.00,,,0.00,WUHU216HW,2013-06-09 05:36:00,
2013-06-09 00:41:00,58.0,48.6,29.96,ENE,68,2.9,6.0,71,0.00,,,0.00,WUHU216HW,2013-06-09 05:41:00,
2013-06-09 00:46:00,58.0,49.0,29.96,ENE,68,2.9,7.2,72,0.00,,,0.00,WUHU216HW,2013-06-09 05:46:00,
2013-06-09 00:51:00,58.0,49.0,29.95,East,90,4.9,7.2,72,0.00,,,0.00,WUHU216HW,2013-06-09 05:51:00,
2013-06-09 00:56:00,57.8,48.8,29.95,ENE,68,4.5,6.5,72,0.00,,,0.00,WUHU216HW,2013-06-09 05:56:00,
2013-06-09 01:01:00,57.8,48.8,29.95,East,90,4.3,6.5,72,0.00,,,0.00,WUHU216HW,2013-06-09 06:01:00,
2013-06-09 01:06:00,57.6,48.6,29.95,ESE,113,4.7,8.7,72,0.00,,,0.00,WUHU216HW,2013-06-09 06:06:00,
2013-06-09 01:11:00,57.6,49.0,29.95,SE,135,6.3,8.7,73,0.00,,,0.00,WUHU216HW,2013-06-09 06:11:00,
2013-06-09 01:16:00,57.4,48.4,29.94,ESE,113,5.1,7.4,72,0.00,,,0.00,WUHU216HW,2013-06-09 06:16:00,
2013-06-09 01:21:00,57.2,48.6,29.94,ESE,113,4.7,7.4,73,0.00,,,0.00,WUHU216HW,2013-06-09 06:21:00,
2013-06-09 01:26:00,57.2,48.6,29.94,SE,135,5.1,8.5,73,0.00,,,0.00,WUHU216HW,2013-06-09 06:26:00,
2013-06-09 01:31:00,57.1,48.4,29.94,ESE,113,5.4,8.5,73,0.00,,,0.00,WUHU216HW,2013-06-09 06:31:00,
2013-06-09 01:36:00,56.9,48.6,29.94,ESE,113,3.1,7.2,74,0.00,,,0.00,WUHU216HW,2013-06-09 06:36:00,
2013-06-09 01:40:00,56.7,48.1,29.94,ENE,68,2.9,5.4,73,0.00,,,0.00,WUHU216HW,2013-06-09 06:40:00,
2013-06-09 01:45:00,56.7,48.4,29.94,East,90,3.1,5.1,74,0.00,,,0.00,WUHU216HW,2013-06-09 06:45:00,
2013-06-09 01:50:00,56.5,48.2,29.94,ENE,68,2.9,4.9,74,0.00,,,0.00,WUHU216HW,2013-06-09 06:50:00,
2013-06-09 01:55:00,56.3,48.5,29.94,East,90,4.0,4.9,75,0.00,,,0.00,WUHU216HW,2013-06-09 06:55:00,
2013-06-09 02:00:00,56.2,48.6,29.94,ENE,68,3.4,5.8,76,0.00,,,0.00,WUHU216HW,2013-06-09 07:00:00,
2013-06-09 02:05:00,56.2,48.6,29.94,ENE,68,4.7,5.8,76,0.00,,,0.00,WUHU216HW,2013-06-09 07:05:00,
2013-06-09 02:10:00,56.2,48.6,29.94,ENE,68,4.9,6.7,76,0.00,,,0.00,WUHU216HW,2013-06-09 07:10:00,
2013-06-09 02:15:00,56.2,49.0,29.94,East,90,4.0,7.2,77,0.00,,,0.00,WUHU216HW,2013-06-09 07:15:00,
2013-06-09 02:20:00,56.3,48.8,29.94,ENE,68,4.5,7.2,76,0.00,,,0.00,WUHU216HW,2013-06-09 07:20:00,
2013-06-09 02:25:00,56.5,49.0,29.94,ENE,68,6.0,6.7,76,0.00,,,0.00,WUHU216HW,2013-06-09 07:25:00,
2013-06-09 02:30:00,56.5,49.0,29.94,ENE,68,5.8,7.4,76,0.00,,,0.00,WUHU216HW,2013-06-09 07:30:00,
2013-06-09 02:35:00,56.5,49.0,29.93,East,90,3.6,7.4,76,0.00,,,0.00,WUHU216HW,2013-06-09 07:35:00,
2013-06-09 02:40:00,56.3,49.1,29.93,ESE,113,5.4,6.3,77,0.00,,,0.00,WUHU216HW,2013-06-09 07:40:00,
2013-06-09 02:45:00,56.3,49.1,29.93,East,90,4.7,6.3,77,0.00,,,0.00,WUHU216HW,2013-06-09 07:45:00,
2013-06-09 02:50:00,56.3,49.1,29.93,East,90,6.5,7.6,77,0.00,,,0.00,WUHU216HW,2013-06-09 07:50:00,
2013-06-09 02:55:00,56.3,49.5,29.93,ENE,68,4.5,7.6,78,0.00,,,0.00,WUHU216HW,2013-06-09 07:55:00,
2013-06-09 03:00:00,56.3,49.5,29.93,East,90,5.4,6.9,78,0.00,,,0.00,WUHU216HW,2013-06-09 08:00:00,
2013-06-09 03:05:00,56.2,49.7,29.93,East,90,4.5,7.2,79,0.00,,,0.00,WUHU216HW,2013-06-09 08:05:00,
2013-06-09 03:10:00,56.2,49.7,29.93,East,90,4.5,7.6,79,0.00,,,0.00,WUHU216HW,2013-06-09 08:10:00,
2013-06-09 03:15:00,56.0,49.5,29.93,East,90,4.5,8.3,79,0.00,,,0.00,WUHU216HW,2013-06-09 08:15:00,
2013-06-09 03:20:00,56.0,49.5,29.93,East,90,5.4,8.3,79,0.00,,,0.00,WUHU216HW,2013-06-09 08:20:00,
2013-06-09 03:25:00,56.0,49.5,29.93,ENE,68,7.8,8.5,79,0.00,,,0.00,WUHU216HW,2013-06-09 08:25:00,
2013-06-09 03:30:00,56.0,49.5,29.93,ESE,113,4.7,8.5,79,0.00,,,0.00,WUHU216HW,2013-06-09 08:30:00,
2013-06-09 03:35:00,56.0,49.5,29.93,ESE,113,4.0,7.8,79,0.00,,,0.00,WUHU216HW,2013-06-09 08:35:00,
2013-06-09 03:40:00,56.0,49.5,29.93,NE,45,3.6,7.6,79,0.00,,,0.00,WUHU216HW,2013-06-09 08:40:00,
2013-06-09 03:45:00,56.0,49.5,29.93,East,90,5.1,7.6,79,0.00,,,0.00,WUHU216HW,2013-06-09 08:45:00,
2013-06-09 03:50:00,56.2,49.7,29.93,ENE,68,6.5,9.2,79,0.00,,,0.00,WUHU216HW,2013-06-09 08:50:00,
2013-06-09 03:55:00,56.2,49.7,29.93,ENE,68,6.9,9.2,79,0.00,,,0.00,WUHU216HW,2013-06-09 08:55:00,
2013-06-09 04:00:00,56.2,49.7,29.93,East,90,6.5,6.9,79,0.00,,,0.00,WUHU216HW,2013-06-09 09:00:00,
2013-06-09 04:05:00,56.2,49.7,29.93,East,90,5.6,8.5,79,0.00,,,0.00,WUHU216HW,2013-06-09 09:05:00,
2013-06-09 04:10:00,56.2,49.7,29.93,ENE,68,6.3,8.5,79,0.00,,,0.00,WUHU216HW,2013-06-09 09:10:00,
2013-06-09 04:15:00,56.2,49.7,29.93,East,90,5.4,6.9,79,0.00,,,0.00,WUHU216HW,2013-06-09 09:15:00,
2013-06-09 04:20:00,56.2,49.7,29.93,East,90,4.7,5.8,79,0.00,,,0.00,WUHU216HW,2013-06-09 09:20:00,
2013-06-09 04:25:00,56.2,49.3,29.93,ENE,68,4.3,6.9,78,0.00,,,0.00,WUHU216HW,2013-06-09 09:25:00,
2013-06-09 04:30:00,56.2,49.3,29.93,ENE,68,2.7,6.9,78,0.00,,,0.00,WUHU216HW,2013-06-09 09:30:00,
2013-06-09 04:35:00,56.2,49.3,29.93,ENE,68,5.6,6.9,78,0.00,,,0.00,WUHU216HW,2013-06-09 09:35:00,
2013-06-09 04:40:00,56.2,49.3,29.93,East,90,3.4,6.9,78,0.00,,,0.00,WUHU216HW,2013-06-09 09:40:00,
2013-06-09 04:45:00,56.2,49.3,29.93,SE,135,3.1,6.9,78,0.00,,,0.00,WUHU216HW,2013-06-09 09:45:00,
2013-06-09 04:50:00,56.2,49.3,29.93,ENE,68,6.3,6.5,78,0.00,,,0.00,WUHU216HW,2013-06-09 09:50:00,
2013-06-09 04:55:00,56.2,49.3,29.93,NE,45,4.7,6.5,78,0.00,,,0.00,WUHU216HW,2013-06-09 09:55:00,
2013-06-09 05:00:00,56.2,49.3,29.93,East,90,5.1,7.2,78,0.00,,,0.00,WUHU216HW,2013-06-09 10:00:00,
2013-06-09 05:05:00,56.2,49.3,29.92,East,90,6.5,7.2,78,0.00,,,0.00,WUHU216HW,2013-06-09 10:05:00,
2013-06-09 05:10:00,56.0,49.5,29.92,ENE,68,5.1,6.9,79,0.00,,,0.00,WUHU216HW,2013-06-09 10:10:00,
2013-06-09 05:15:00,56.0,49.1,29.93,East,90,6.0,6.7,78,0.00,,,0.00,WUHU216HW,2013-06-09 10:15:00,
2013-06-09 05:20:00,56.0,49.1,29.93,East,90,3.6,6.7,78,0.00,,,0.00,WUHU216HW,2013-06-09 10:20:00,
2013-06-09 05:25:00,56.0,49.1,29.93,ESE,113,4.5,6.0,78,0.00,,,0.00,WUHU216HW,2013-06-09 10:25:00,
2013-06-09 05:30:00,56.0,49.1,29.93,SE,135,3.4,5.4,78,0.00,,,0.00,WUHU216HW,2013-06-09 10:30:00,
2013-06-09 05:35:00,56.0,49.1,29.93,ESE,113,2.5,4.7,78,0.00,,,0.00,WUHU216HW,2013-06-09 10:35:00,
2013-06-09 05:40:00,56.0,49.1,29.93,East,90,1.8,4.0,78,0.00,,,0.00,WUHU216HW,2013-06-09 10:40:00,
2013-06-09 05:45:00,56.0,49.5,29.93,ENE,68,3.4,4.0,79,0.00,,,0.00,WUHU216HW,2013-06-09 10:45:00,
2013-06-09 05:50:00,56.0,49.5,29.92,NE,45,2.9,4.9,79,0.00,,,0.00,WUHU216HW,2013-06-09 10:50:00,
2013-06-09 05:55:00,55.8,49.3,29.92,NE,45,3.1,5.4,79,0.00,,,0.00,WUHU216HW,2013-06-09 10:55:00,
2013-06-09 06:00:00,55.8,49.3,29.92,ENE,68,6.0,7.2,79,0.00,,,0.00,WUHU216HW,2013-06-09 11:00:00,
2013-06-09 06:05:00,55.8,49.3,29.91,ENE,68,6.9,8.1,79,0.00,,,0.00,WUHU216HW,2013-06-09 11:05:00,
2013-06-09 06:10:00,55.8,49.3,29.91,ENE,68,6.3,8.1,79,0.00,,,0.00,WUHU216HW,2013-06-09 11:10:00,
2013-06-09 06:15:00,56.0,49.5,29.91,ENE,68,7.6,8.9,79,0.00,,,0.00,WUHU216HW,2013-06-09 11:15:00,
2013-06-09 06:20:00,56.2,49.3,29.91,ENE,68,6.0,9.2,78,0.00,,,0.00,WUHU216HW,2013-06-09 11:20:00,
2013-06-09 06:25:00,56.3,49.1,29.91,East,90,7.6,9.2,77,0.00,,,0.00,WUHU216HW,2013-06-09 11:25:00,
2013-06-09 06:30:00,56.5,49.3,29.91,ENE,68,7.4,7.8,77,0.00,,,0.00,WUHU216HW,2013-06-09 11:30:00,
2013-06-09 06:35:00,56.7,49.1,29.91,NE,45,7.8,9.8,76,0.00,,,0.00,WUHU216HW,2013-06-09 11:35:00,
2013-06-09 06:40:00,56.9,49.3,29.91,NE,45,6.0,10.5,76,0.00,,,0.00,WUHU216HW,2013-06-09 11:40:00,
2013-06-09 06:45:00,57.1,49.5,29.91,ENE,68,6.9,10.5,76,0.00,,,0.00,WUHU216HW,2013-06-09 11:45:00,
2013-06-09 06:50:00,57.2,49.3,29.90,NE,45,5.8,9.6,75,0.00,,,0.00,WUHU216HW,2013-06-09 11:50:00,
2013-06-09 06:55:00,58.1,49.9,29.91,ESE,113,5.1,9.6,74,0.00,,,0.00,WUHU216HW,2013-06-09 11:55:00,
2013-06-09 07:00:00,59.9,50.2,29.91,ENE,68,9.8,9.8,70,0.00,,,0.00,WUHU216HW,2013-06-09 12:00:00,
2013-06-09 07:05:00,61.4,51.2,29.90,SE,135,5.6,9.8,69,0.00,,,0.00,WUHU216HW,2013-06-09 12:05:00,
2013-06-09 07:10:00,61.9,50.9,29.90,ESE,113,7.4,10.1,67,0.00,,,0.00,WUHU216HW,2013-06-09 12:10:00,
2013-06-09 07:15:00,61.2,50.2,29.90,East,90,11.4,11.4,67,0.00,,,0.00,WUHU216HW,2013-06-09 12:15:00,
2013-06-09 07:20:00,61.2,51.0,29.91,East,90,8.5,11.4,69,0.00,,,0.00,WUHU216HW,2013-06-09 12:20:00,
2013-06-09 07:25:00,61.7,51.1,29.90,ESE,113,5.8,11.4,68,0.00,,,0.00,WUHU216HW,2013-06-09 12:25:00,
2013-06-09 07:30:00,61.7,51.1,29.91,SE,135,10.5,12.8,68,0.00,,,0.00,WUHU216HW,2013-06-09 12:30:00,
2013-06-09 07:35:00,61.6,50.5,29.91,ENE,68,9.6,12.8,67,0.00,,,0.00,WUHU216HW,2013-06-09 12:35:00,
2013-06-09 07:40:00,61.6,50.5,29.91,SE,135,10.5,11.4,67,0.00,,,0.00,WUHU216HW,2013-06-09 12:40:00,
2013-06-09 07:45:00,61.9,51.3,29.91,SE,135,8.3,11.4,68,0.00,,,0.00,WUHU216HW,2013-06-09 12:45:00,
2013-06-09 07:50:00,62.5,51.0,29.90,ESE,113,7.6,11.6,66,0.00,,,0.00,WUHU216HW,2013-06-09 12:50:00,
2013-06-09 07:55:00,62.8,51.3,29.90,SE,135,9.2,11.6,66,0.00,,,0.00,WUHU216HW,2013-06-09 12:55:00,
2013-06-09 08:00:00,63.2,51.2,29.90,SE,135,6.7,11.0,65,0.00,,,0.00,WUHU216HW,2013-06-09 13:00:00,
2013-06-09 08:05:00,63.2,51.2,29.90,ESE,113,8.1,11.2,65,0.00,,,0.00,WUHU216HW,2013-06-09 13:05:00,
2013-06-09 08:10:00,63.7,51.3,29.90,SE,135,10.3,11.2,64,0.00,,,0.00,WUHU216HW,2013-06-09 13:10:00,
2013-06-09 08:15:00,64.1,52.0,29.90,ESE,113,6.9,10.5,65,0.00,,,0.00,WUHU216HW,2013-06-09 13:15:00,
2013-06-09 08:20:00,64.6,51.7,29.90,SE,135,8.5,13.2,63,0.00,,,0.00,WUHU216HW,2013-06-09 13:20:00,
2013-06-09 08:25:00,65.0,51.6,29.90,ESE,113,11.4,13.4,62,0.00,,,0.00,WUHU216HW,2013-06-09 13:25:00,
2013-06-09 08:30:00,65.3,52.4,29.89,SE,135,9.4,13.4,63,0.00,,,0.00,WUHU216HW,2013-06-09 13:30:00,
2013-06-09 08:35:00,65.9,52.5,29.89,ENE,68,8.1,12.1,62,0.00,,,0.00,WUHU216HW,2013-06-09 13:35:00,
2013-06-09 08:40:00,65.9,52.1,29.89,SE,135,8.7,12.8,61,0.00,,,0.00,WUHU216HW,2013-06-09 13:40:00,
2013-06-09 08:45:00,65.9,52.5,29.89,SE,135,9.2,13.4,62,0.00,,,0.00,WUHU216HW,2013-06-09 13:45:00,
2013-06-09 08:50:00,66.1,52.3,29.89,ESE,113,12.3,13.4,61,0.00,,,0.00,WUHU216HW,2013-06-09 13:50:00,
2013-06-09 08:55:00,66.1,52.3,29.89,East,90,10.3,13.9,61,0.00,,,0.00,WUHU216HW,2013-06-09 13:55:00,
2013-06-09 09:00:00,66.2,52.8,29.89,SE,135,9.2,13.9,62,0.00,,,0.00,WUHU216HW,2013-06-09 14:00:00,
2013-06-09 09:05:00,67.0,53.1,29.89,ESE,113,9.6,12.8,61,0.00,,,0.00,WUHU216HW,2013-06-09 14:05:00,
2013-06-09 09:10:00,68.0,54.1,29.89,ESE,113,10.7,13.4,61,0.00,,,0.00,WUHU216HW,2013-06-09 14:10:00,
2013-06-09 09:15:00,68.6,54.2,29.89,ESE,113,7.2,13.4,60,0.00,,,0.00,WUHU216HW,2013-06-09 14:15:00,
2013-06-09 09:20:00,68.8,54.8,29.89,SE,135,11.0,13.4,61,0.00,,,0.00,WUHU216HW,2013-06-09 14:20:00,
2013-06-09 09:25:00,69.1,54.2,29.89,SE,135,13.2,15.7,59,0.00,,,0.00,WUHU216HW,2013-06-09 14:25:00,
2013-06-09 09:30:00,69.8,54.9,29.88,SE,135,11.4,15.7,59,0.00,,,0.00,WUHU216HW,2013-06-09 14:30:00,
2013-06-09 09:35:00,70.2,55.8,29.88,SE,135,6.9,13.9,60,0.00,,,0.00,WUHU216HW,2013-06-09 14:35:00,
2013-06-09 09:40:00,70.4,55.9,29.88,ESE,113,11.9,13.9,60,0.00,,,0.00,WUHU216HW,2013-06-09 14:40:00,
2013-06-09 09:45:00,70.7,55.7,29.88,SE,135,10.7,13.9,59,0.00,,,0.00,WUHU216HW,2013-06-09 14:45:00,
2013-06-09 09:50:00,70.7,56.3,29.88,SE,135,11.2,14.1,60,0.00,,,0.00,WUHU216HW,2013-06-09 14:50:00,
2013-06-09 09:55:00,71.1,57.0,29.88,SE,135,12.3,14.1,61,0.00,,,0.00,WUHU216HW,2013-06-09 14:55:00,
2013-06-09 10:00:00,71.5,57.3,29.87,SE,135,9.8,13.2,61,0.00,,,0.00,WUHU216HW,2013-06-09 15:00:00,
2013-06-09 10:05:00,71.5,57.8,29.87,SE,135,12.3,15.2,62,0.00,,,0.00,WUHU216HW,2013-06-09 15:05:00,
2013-06-09 10:10:00,72.0,57.8,29.87,ESE,113,10.5,15.2,61,0.00,,,0.00,WUHU216HW,2013-06-09 15:10:00,
2013-06-09 10:15:00,72.4,58.1,29.87,SE,135,10.3,13.2,61,0.00,,,0.00,WUHU216HW,2013-06-09 15:15:00,
2013-06-09 10:20:00,72.7,58.1,29.86,East,90,10.1,12.8,60,0.00,,,0.00,WUHU216HW,2013-06-09 15:20:00,
2013-06-09 10:25:00,73.1,58.8,29.87,ESE,113,9.2,12.3,61,0.00,,,0.00,WUHU216HW,2013-06-09 15:25:00,
2013-06-09 10:30:00,73.8,59.5,29.86,ESE,113,11.2,13.0,61,0.00,,,0.00,WUHU216HW,2013-06-09 15:30:00,
2013-06-09 10:35:00,74.2,57.9,29.86,SE,135,12.8,15.4,57,0.00,,,0.00,WUHU216HW,2013-06-09 15:35:00,
2013-06-09 10:40:00,74.5,58.2,29.86,SE,135,13.6,15.4,57,0.00,,,0.00,WUHU216HW,2013-06-09 15:40:00,
2013-06-09 10:45:00,74.9,59.1,29.86,East,90,17.7,17.7,58,0.00,,,0.00,WUHU216HW,2013-06-09 15:45:00,
2013-06-09 10:50:00,74.9,58.2,29.86,SE,135,11.0,19.2,56,0.00,,,0.00,WUHU216HW,2013-06-09 15:50:00,
2013-06-09 10:55:00,74.9,57.6,29.86,SE,135,14.1,19.2,55,0.00,,,0.00,WUHU216HW,2013-06-09 15:55:00,
2013-06-09 11:00:00,75.6,58.8,29.86,SSE,158,22.4,31.1,56,0.00,,,0.00,WUHU216HW,2013-06-09 16:00:00,
2013-06-09 11:05:00,76.1,58.8,29.86,East,90,19.2,31.1,55,0.00,,,0.00,WUHU216HW,2013-06-09 16:05:00,
2013-06-09 11:10:00,76.3,58.4,29.86,SE,135,25.3,30.4,54,0.00,,,0.00,WUHU216HW,2013-06-09 16:10:00,
2013-06-09 11:15:00,76.1,58.8,29.86,SE,135,9.2,31.5,55,0.00,,,0.00,WUHU216HW,2013-06-09 16:15:00,
2013-06-09 11:20:00,76.7,58.8,29.86,SSE,158,16.3,31.5,54,0.00,,,0.00,WUHU216HW,2013-06-09 16:20:00,
2013-06-09 11:25:00,77.2,58.8,29.86,SE,135,22.4,28.0,53,0.00,,,0.00,WUHU216HW,2013-06-09 16:25:00,
2013-06-09 11:30:00,77.6,58.6,29.86,SE,135,7.2,34.0,52,0.00,,,0.00,WUHU216HW,2013-06-09 16:30:00,
2013-06-09 11:35:00,77.9,58.4,29.85,SE,135,10.3,34.0,51,0.00,,,0.00,WUHU216HW,2013-06-09 16:35:00,
2013-06-09 11:40:00,78.1,58.1,29.85,SE,135,9.2,25.1,50,0.00,,,0.00,WUHU216HW,2013-06-09 16:40:00,
2013-06-09 11:45:00,78.3,57.6,29.85,SE,135,13.0,25.1,49,0.00,,,0.00,WUHU216HW,2013-06-09 16:45:00,
2013-06-09 11:50:00,78.1,56.8,29.85,SE,135,14.1,36.2,48,0.00,,,0.00,WUHU216HW,2013-06-09 16:50:00,
2013-06-09 11:55:00,78.3,58.2,29.84,SE,135,21.3,36.2,50,0.00,,,0.00,WUHU216HW,2013-06-09 16:55:00,
2013-06-09 12:00:00,78.7,58.5,29.84,SE,135,14.1,30.2,50,0.00,,,0.00,WUHU216HW,2013-06-09 17:00:00,
2013-06-09 12:05:00,78.7,57.3,29.84,East,90,14.8,30.2,48,0.00,,,0.00,WUHU216HW,2013-06-09 17:05:00,
2013-06-09 12:10:00,78.5,57.2,29.84,SE,135,32.0,32.0,48,0.00,,,0.00,WUHU216HW,2013-06-09 17:10:00,
2013-06-09 12:15:00,78.8,57.4,29.84,SSE,158,12.1,32.0,48,0.00,,,0.00,WUHU216HW,2013-06-09 17:15:00,
2013-06-09 12:20:00,79.0,57.6,29.84,SSE,158,10.1,32.0,48,0.00,,,0.00,WUHU216HW,2013-06-09 17:20:00,
2013-06-09 12:25:00,79.0,57.0,29.84,SSE,158,17.0,29.5,47,0.00,,,0.00,WUHU216HW,2013-06-09 17:25:00,
2013-06-09 12:30:00,79.2,57.2,29.83,SE,135,24.8,32.0,47,0.00,,,0.00,WUHU216HW,2013-06-09 17:30:00,
2013-06-09 12:35:00,79.7,57.7,29.83,SSE,158,31.1,32.0,47,0.00,,,0.00,WUHU216HW,2013-06-09 17:35:00,
2013-06-09 12:40:00,79.4,57.3,29.83,SSE,158,31.8,35.3,47,0.00,,,0.00,WUHU216HW,2013-06-09 17:40:00,
2013-06-09 12:45:00,78.3,57.6,29.83,South,180,21.5,35.3,49,0.00,,,0.00,WUHU216HW,2013-06-09 17:45:00,
2013-06-09 12:50:00,77.9,56.6,29.83,SSE,158,23.9,34.9,48,0.00,,,0.00,WUHU216HW,2013-06-09 17:50:00,
2013-06-09 12:55:00,77.8,56.5,29.83,SE,135,24.6,33.3,48,0.00,,,0.00,WUHU216HW,2013-06-09 17:55:00,
2013-06-09 13:00:00,77.6,56.4,29.83,SE,135,24.2,33.3,48,0.00,,,0.00,WUHU216HW,2013-06-09 18:00:00,
2013-06-09 13:05:00,77.4,56.8,29.83,ESE,113,23.0,30.9,49,0.00,,,0.00,WUHU216HW,2013-06-09 18:05:00,
2013-06-09 13:10:00,77.4,56.8,29.83,SE,135,22.4,30.9,49,0.00,,,0.00,WUHU216HW,2013-06-09 18:10:00,
2013-06-09 13:15:00,77.9,57.9,29.82,ESE,113,20.8,29.1,50,0.00,,,0.00,WUHU216HW,2013-06-09 18:15:00,
2013-06-09 13:20:00,78.3,57.6,29.82,SE,135,24.6,30.9,49,0.00,,,0.00,WUHU216HW,2013-06-09 18:20:00,
2013-06-09 13:25:00,78.1,57.4,29.82,SE,135,22.4,33.1,49,0.00,,,0.00,WUHU216HW,2013-06-09 18:25:00,
2013-06-09 13:30:00,77.9,57.2,29.82,SE,135,18.6,33.1,49,0.00,,,0.00,WUHU216HW,2013-06-09 18:30:00,
2013-06-09 13:35:00,78.1,58.1,29.82,SE,135,23.3,31.3,50,0.00,,,0.00,WUHU216HW,2013-06-09 18:35:00,
2013-06-09 13:40:00,79.0,59.4,29.82,SE,135,23.3,28.2,51,0.00,,,0.00,WUHU216HW,2013-06-09 18:40:00,
2013-06-09 13:45:00,79.2,58.4,29.82,ESE,113,22.8,37.4,49,0.00,,,0.00,WUHU216HW,2013-06-09 18:45:00,
2013-06-09 13:50:00,80.1,59.2,29.81,SE,135,22.1,37.4,49,0.00,,,0.00,WUHU216HW,2013-06-09 18:50:00,
2013-06-09 13:55:00,80.3,58.1,29.81,SSE,158,30.2,33.1,47,0.00,,,0.00,WUHU216HW,2013-06-09 18:55:00,
2013-06-09 14:00:00,80.3,58.8,29.81,SE,135,22.6,33.1,48,0.00,,,0.00,WUHU216HW,2013-06-09 19:00:00,
2013-06-09 14:05:00,80.1,58.6,29.81,SE,135,29.3,33.6,48,0.00,,,0.00,WUHU216HW,2013-06-09 19:05:00,
2013-06-09 14:10:00,79.6,58.7,29.81,ESE,113,33.1,35.3,49,0.00,,,0.00,WUHU216HW,2013-06-09 19:10:00,
2013-06-09 14:15:00,79.0,58.9,29.81,South,180,24.4,36.2,50,0.00,,,0.00,WUHU216HW,2013-06-09 19:15:00,
2013-06-09 14:20:00,78.8,59.2,29.81,SE,135,21.7,36.2,51,0.00,,,0.00,WUHU216HW,2013-06-09 19:20:00,
2013-06-09 14:25:00,78.7,59.1,29.81,ESE,113,17.2,32.0,51,0.00,,,0.00,WUHU216HW,2013-06-09 19:25:00,
2013-06-09 14:30:00,78.5,58.3,29.81,SE,135,23.9,32.0,50,0.00,,,0.00,WUHU216HW,2013-06-09 19:30:00,
2013-06-09 14:35:00,78.8,59.2,29.80,SE,135,19.9,35.3,51,0.00,,,0.00,WUHU216HW,2013-06-09 19:35:00,
2013-06-09 14:40:00,80.1,59.2,29.80,SE,135,25.3,35.3,49,0.00,,,0.00,WUHU216HW,2013-06-09 19:40:00,
2013-06-09 14:45:00,81.0,60.0,29.80,ESE,113,22.4,33.6,49,0.00,,,0.00,WUHU216HW,2013-06-09 19:45:00,
2013-06-09 14:50:00,81.0,58.8,29.80,East,90,19.5,32.4,47,0.00,,,0.00,WUHU216HW,2013-06-09 19:50:00,
2013-06-09 14:55:00,80.6,58.5,29.80,SE,135,17.0,32.4,47,0.00,,,0.00,WUHU216HW,2013-06-09 19:55:00,
2013-06-09 15:00:00,80.3,58.8,29.79,East,90,25.9,29.8,48,0.00,,,0.00,WUHU216HW,2013-06-09 20:00:00,
2013-06-09 15:05:00,79.4,58.6,29.79,SE,135,19.9,29.8,49,0.00,,,0.00,WUHU216HW,2013-06-09 20:05:00,
2013-06-09 15:10:00,79.0,58.2,29.78,SSE,158,17.2,26.8,49,0.00,,,0.00,WUHU216HW,2013-06-09 20:10:00,
2013-06-09 15:15:00,78.5,58.3,29.78,SSE,158,28.6,28.6,50,0.00,,,0.00,WUHU216HW,2013-06-09 20:15:00,
2013-06-09 15:20:00,78.1,58.1,29.78,East,90,18.1,28.6,50,0.00,,,0.00,WUHU216HW,2013-06-09 20:20:00,
2013-06-09 15:24:00,77.9,58.4,29.78,SE,135,16.8,29.5,51,0.00,,,0.00,WUHU216HW,2013-06-09 20:24:00,
2013-06-09 15:29:00,78.1,58.6,29.78,SE,135,17.9,29.5,51,0.00,,,0.00,WUHU216HW,2013-06-09 20:29:00,
2013-06-09 15:34:00,78.1,58.6,29.78,SE,135,14.3,28.0,51,0.00,,,0.00,WUHU216HW,2013-06-09 20:34:00,
2013-06-09 15:39:00,77.9,58.4,29.78,SE,135,19.7,28.0,51,0.00,,,0.00,WUHU216HW,2013-06-09 20:39:00,
2013-06-09 15:44:00,77.8,57.7,29.78,SE,135,25.9,27.3,50,0.00,,,0.00,WUHU216HW,2013-06-09 20:44:00,
2013-06-09 15:49:00,77.8,57.7,29.78,SE,135,22.4,29.5,50,0.00,,,0.00,WUHU216HW,2013-06-09 20:49:00,
2013-06-09 15:54:00,77.9,58.4,29.77,SE,135,17.2,29.5,51,0.00,,,0.00,WUHU216HW,2013-06-09 20:54:00,
2013-06-09 15:59:00,78.5,58.9,29.77,ESE,113,20.1,22.4,51,0.00,,,0.00,WUHU216HW,2013-06-09 20:59:00,
2013-06-09 16:04:00,78.7,57.9,29.77,SE,135,22.8,23.7,49,0.00,,,0.00,WUHU216HW,2013-06-09 21:04:00,
2013-06-09 16:09:00,78.5,58.3,29.77,SE,135,21.3,26.4,50,0.00,,,0.00,WUHU216HW,2013-06-09 21:09:00,
2013-06-09 16:14:00,78.3,57.0,29.77,SE,135,21.9,30.2,48,0.00,,,0.00,WUHU216HW,2013-06-09 21:14:00,
2013-06-09 16:19:00,78.3,57.6,29.77,ESE,113,13.4,30.2,49,0.00,,,0.00,WUHU216HW,2013-06-09 21:19:00,
2013-06-09 16:24:00,78.1,58.1,29.77,SE,135,18.1,29.3,50,0.00,,,0.00,WUHU216HW,2013-06-09 21:24:00,
2013-06-09 16:29:00,78.1,57.4,29.77,SSE,158,25.7,29.3,49,0.00,,,0.00,WUHU216HW,2013-06-09 21:29:00,
2013-06-09 16:34:00,78.1,57.4,29.77,SSE,158,19.7,27.3,49,0.00,,,0.00,WUHU216HW,2013-06-09 21:34:00,
2013-06-09 16:39:00,78.5,57.8,29.77,SE,135,20.1,25.9,49,0.00,,,0.00,WUHU216HW,2013-06-09 21:39:00,
2013-06-09 16:44:00,78.7,57.9,29.76,ESE,113,15.0,25.9,49,0.00,,,0.00,WUHU216HW,2013-06-09 21:44:00,
2013-06-09 16:49:00,79.2,58.4,29.77,SSE,158,18.6,25.3,49,0.00,,,0.00,WUHU216HW,2013-06-09 21:49:00,
2013-06-09 16:54:00,78.8,56.9,29.77,SE,135,19.9,32.4,47,0.00,,,0.00,WUHU216HW,2013-06-09 21:54:00,
2013-06-09 16:59:00,78.7,57.9,29.77,South,180,23.0,32.4,49,0.00,,,0.00,WUHU216HW,2013-06-09 21:59:00,
2013-06-09 17:04:00,78.8,58.1,29.76,ESE,113,22.1,27.5,49,0.00,,,0.00,WUHU216HW,2013-06-09 22:04:00,
2013-06-09 17:09:00,78.8,57.4,29.76,ESE,113,21.0,28.2,48,0.00,,,0.00,WUHU216HW,2013-06-09 22:09:00,
2013-06-09 17:14:00,79.0,58.9,29.76,SE,135,11.9,28.2,50,0.00,,,0.00,WUHU216HW,2013-06-09 22:14:00,
2013-06-09 17:19:00,79.2,57.8,29.76,SSE,158,16.6,26.2,48,0.00,,,0.00,WUHU216HW,2013-06-09 22:19:00,
2013-06-09 17:24:00,78.8,58.1,29.76,ESE,113,10.5,16.6,49,0.00,,,0.00,WUHU216HW,2013-06-09 22:24:00,
2013-06-09 17:29:00,78.8,58.1,29.76,SE,135,18.3,20.1,49,0.00,,,0.00,WUHU216HW,2013-06-09 22:29:00,
2013-06-09 17:34:00,78.5,57.8,29.76,SSE,158,16.6,25.9,49,0.00,,,0.00,WUHU216HW,2013-06-09 22:34:00,
2013-06-09 17:39:00,78.3,59.2,29.76,ESE,113,15.0,25.9,52,0.00,,,0.00,WUHU216HW,2013-06-09 22:39:00,
2013-06-09 17:44:00,77.6,59.6,29.76,SE,135,13.6,20.4,54,0.00,,,0.00,WUHU216HW,2013-06-09 22:44:00,
2013-06-09 17:49:00,77.2,59.2,29.76,SE,135,14.5,20.6,54,0.00,,,0.00,WUHU216HW,2013-06-09 22:49:00,
2013-06-09 17:54:00,77.0,59.6,29.76,SSE,158,15.7,20.6,55,0.00,,,0.00,WUHU216HW,2013-06-09 22:54:00,
2013-06-09 17:59:00,76.7,59.2,29.76,SE,135,14.3,18.6,55,0.00,,,0.00,WUHU216HW,2013-06-09 22:59:00,
2013-06-09 18:04:00,76.3,59.0,29.76,SE,135,16.3,21.5,55,0.00,,,0.00,WUHU216HW,2013-06-09 23:04:00,
2013-06-09 18:09:00,76.0,59.1,29.76,SE,135,13.4,21.5,56,0.00,,,0.00,WUHU216HW,2013-06-09 23:09:00,
2013-06-09 18:14:00,75.8,59.0,29.76,SSE,158,10.5,16.3,56,0.00,,,0.00,WUHU216HW,2013-06-09 23:14:00,
2013-06-09 18:19:00,75.6,58.8,29.76,SE,135,11.4,15.0,56,0.00,,,0.00,WUHU216HW,2013-06-09 23:19:00,
2013-06-09 18:24:00,75.4,58.6,29.76,SE,135,16.3,16.3,56,0.00,,,0.00,WUHU216HW,2013-06-09 23:24:00,
2013-06-09 18:29:00,75.2,58.5,29.76,SE,135,9.4,16.8,56,0.00,,,0.00,WUHU216HW,2013-06-09 23:29:00,
2013-06-09 18:34:00,75.2,58.5,29.76,ESE,113,12.8,16.8,56,0.00,,,0.00,WUHU216HW,2013-06-09 23:34:00,
2013-06-09 18:39:00,74.9,59.1,29.76,SE,135,11.0,14.5,58,0.00,,,0.00,WUHU216HW,2013-06-09 23:39:00,
2013-06-09 18:44:00,74.7,58.4,29.76,SE,135,12.3,14.3,57,0.00,,,0.00,WUHU216HW,2013-06-09 23:44:00,
2013-06-09 18:49:00,74.5,57.8,29.76,ESE,113,10.7,14.5,56,0.00,,,0.00,WUHU216HW,2013-06-09 23:49:00,
2013-06-09 18:54:00,74.5,57.8,29.76,ESE,113,11.0,14.5,56,0.00,,,0.00,WUHU216HW,2013-06-09 23:54:00,
2013-06-09 18:59:00,74.5,58.2,29.76,SE,135,10.3,14.3,57,0.00,,,0.00,WUHU216HW,2013-06-09 23:59:00,
2013-06-09 19:04:00,74.2,57.9,29.76,SE,135,4.7,17.9,57,0.00,,,0.00,WUHU216HW,2013-06-10 00:04:00,
2013-06-09 19:09:00,74.0,57.7,29.76,ESE,113,12.8,17.9,57,0.00,,,0.00,WUHU216HW,2013-06-10 00:09:00,
2013-06-09 19:14:00,73.8,57.5,29.76,SE,135,14.1,15.4,57,0.00,,,0.00,WUHU216HW,2013-06-10 00:14:00,
2013-06-09 19:19:00,73.6,57.3,29.76,ESE,113,15.7,19.5,57,0.00,,,0.00,WUHU216HW,2013-06-10 00:19:00,
2013-06-09 19:24:00,73.4,57.7,29.75,ESE,113,12.1,19.5,58,0.00,,,0.00,WUHU216HW,2013-06-10 00:24:00,
2013-06-09 19:29:00,73.3,57.5,29.75,SE,135,9.2,17.2,58,0.00,,,0.00,WUHU216HW,2013-06-10 00:29:00,
2013-06-09 19:34:00,73.1,57.3,29.75,East,90,12.1,17.2,58,0.00,,,0.00,WUHU216HW,2013-06-10 00:34:00,
2013-06-09 19:39:00,72.9,57.7,29.75,SE,135,11.9,14.3,59,0.00,,,0.00,WUHU216HW,2013-06-10 00:39:00,
2013-06-09 19:44:00,72.7,58.1,29.75,SE,135,6.5,13.0,60,0.00,,,0.00,WUHU216HW,2013-06-10 00:44:00,
2013-06-09 19:49:00,72.4,57.3,29.76,ESE,113,8.1,14.3,59,0.00,,,0.00,WUHU216HW,2013-06-10 00:49:00,
2013-06-09 19:54:00,72.4,57.7,29.76,SE,135,8.1,14.3,60,0.00,,,0.00,WUHU216HW,2013-06-10 00:54:00,
2013-06-09 19:59:00,72.4,57.7,29.77,SE,135,6.9,13.6,60,0.00,,,0.00,WUHU216HW,2013-06-10 00:59:00,
2013-06-09 20:04:00,72.0,57.8,29.78,SSE,158,4.9,11.9,61,0.00,,,0.00,WUHU216HW,2013-06-10 01:04:00,
2013-06-09 20:09:00,71.8,58.1,29.78,SE,135,6.3,10.5,62,0.00,,,0.00,WUHU216HW,2013-06-10 01:09:00,
2013-06-09 20:14:00,71.3,59.3,29.78,SSW,203,6.9,9.4,66,0.00,,,0.00,WUHU216HW,2013-06-10 01:14:00,
2013-06-09 20:19:00,70.2,59.5,29.78,SSW,203,6.5,9.4,69,0.00,,,0.00,WUHU216HW,2013-06-10 01:19:00,
2013-06-09 20:24:00,69.3,59.5,29.78,SSW,203,4.3,9.4,71,0.00,,,0.00,WUHU216HW,2013-06-10 01:24:00,
2013-06-09 20:29:00,68.8,59.4,29.77,SE,135,4.0,8.3,72,0.00,,,0.00,WUHU216HW,2013-06-10 01:29:00,
2013-06-09 20:34:00,68.6,58.4,29.77,ESE,113,2.7,4.7,70,0.00,,,0.00,WUHU216HW,2013-06-10 01:34:00,
2013-06-09 20:39:00,68.4,59.8,29.77,ENE,68,3.6,4.7,74,0.00,,,0.00,WUHU216HW,2013-06-10 01:39:00,
2013-06-09 20:44:00,68.0,59.9,29.77,ENE,68,3.8,4.7,75,0.00,,,0.00,WUHU216HW,2013-06-10 01:44:00,
2013-06-09 20:49:00,67.9,60.0,29.77,ENE,68,3.1,4.7,76,0.00,,,0.00,WUHU216HW,2013-06-10 01:49:00,
2013-06-09 20:54:00,67.7,59.5,29.77,ENE,68,2.2,5.1,75,0.00,,,0.00,WUHU216HW,2013-06-10 01:54:00,
2013-06-09 20:59:00,67.7,59.5,29.77,ENE,68,4.0,5.1,75,0.00,,,0.00,WUHU216HW,2013-06-10 01:59:00,
2013-06-09 21:04:00,67.7,59.1,29.78,SE,135,2.5,5.1,74,0.00,,,0.00,WUHU216HW,2013-06-10 02:04:00,
2013-06-09 21:09:00,67.7,59.1,29.78,SSW,203,2.2,4.7,74,0.00,,,0.00,WUHU216HW,2013-06-10 02:09:00,
2013-06-09 21:14:00,67.5,59.3,29.79,South,180,5.1,5.4,75,0.00,,,0.00,WUHU216HW,2013-06-10 02:14:00,
2013-06-09 21:19:00,67.3,60.7,29.79,SW,225,8.3,10.3,79,0.00,,,0.00,WUHU216HW,2013-06-10 02:19:00,
2013-06-09 21:24:00,67.0,61.0,29.79,SW,225,5.4,10.3,81,0.01,,,0.01,WUHU216HW,2013-06-10 02:24:00,
2013-06-09 21:29:00,66.6,60.3,29.79,SW,225,2.9,7.6,80,0.01,,,0.01,WUHU216HW,2013-06-10 02:29:00,
2013-06-09 21:34:00,66.4,61.1,29.79,SSW,203,4.0,6.3,83,0.01,,,0.01,WUHU216HW,2013-06-10 02:34:00,
2013-06-09 21:39:00,66.1,60.4,29.80,SSW,203,5.6,5.6,82,0.02,,,0.02,WUHU216HW,2013-06-10 02:39:00,
2013-06-09 21:44:00,65.9,60.9,29.80,SSW,203,4.0,6.7,84,0.02,,,0.02,WUHU216HW,2013-06-10 02:44:00,
2013-06-09 21:49:00,65.7,61.4,29.81,SSW,203,5.8,7.6,86,0.03,,,0.03,WUHU216HW,2013-06-10 02:49:00,
2013-06-09 21:54:00,65.3,61.0,29.80,SW,225,6.9,8.9,86,0.04,,,0.04,WUHU216HW,2013-06-10 02:54:00,
2013-06-09 21:59:00,65.2,60.6,29.80,SW,225,4.7,8.9,85,0.05,,,0.05,WUHU216HW,2013-06-10 02:59:00,
2013-06-09 22:04:00,65.2,60.6,29.81,SE,135,4.3,8.9,85,0.06,,,0.06,WUHU216HW,2013-06-10 03:04:00,
2013-06-09 22:09:00,65.0,60.4,29.81,SW,225,2.9,6.3,85,0.06,,,0.06,WUHU216HW,2013-06-10 03:09:00,
2013-06-09 22:14:00,64.8,60.2,29.81,SSW,203,3.4,4.3,85,0.06,,,0.06,WUHU216HW,2013-06-10 03:14:00,
2013-06-09 22:19:00,64.8,60.2,29.81,SSW,203,2.5,4.0,85,0.07,,,0.07,WUHU216HW,2013-06-10 03:19:00,
2013-06-09 22:24:00,64.6,59.7,29.81,SSW,203,1.3,3.4,84,0.06,,,0.07,WUHU216HW,2013-06-10 03:24:00,
2013-06-09 22:29:00,64.6,59.7,29.81,SSW,203,0.4,2.5,84,0.07,,,0.08,WUHU216HW,2013-06-10 03:29:00,
2013-06-09 22:34:00,64.4,59.1,29.80,SE,135,0.4,1.3,83,0.07,,,0.08,WUHU216HW,2013-06-10 03:34:00,
2013-06-09 22:39:00,64.4,59.1,29.80,SE,135,0.2,1.8,83,0.06,,,0.08,WUHU216HW,2013-06-10 03:39:00,
2013-06-09 22:44:00,64.4,59.1,29.80,SE,135,0.0,1.8,83,0.05,,,0.08,WUHU216HW,2013-06-10 03:44:00,
2013-06-09 22:49:00,64.4,59.1,29.80,SE,135,0.0,1.6,83,0.04,,,0.08,WUHU216HW,2013-06-10 03:49:00,
2013-06-09 22:54:00,64.3,59.3,29.80,SE,135,1.3,1.3,84,0.04,,,0.08,WUHU216HW,2013-06-10 03:54:00,
2013-06-09 22:59:00,64.3,59.3,29.80,SE,135,0.0,1.3,84,0.03,,,0.08,WUHU216HW,2013-06-10 03:59:00,
2013-06-09 23:01:00,64.3,59.3,29.80,SE,135,0.0,1.3,84,0.03,,,0.08,WUHU216HW,2013-06-10 04:01:00,
2013-06-09 23:02:00,64.1,59.1,29.80,SE,135,0.0,1.3,84,0.03,,,0.08,WUHU216HW,2013-06-10 04:02:00,
2013-06-09 23:07:00,64.1,59.1,29.80,SE,135,0.0,0.0,84,0.02,,,0.08,WUHU216HW,2013-06-10 04:07:00,
2013-06-09 23:12:00,64.1,59.9,29.79,ESE,113,1.8,1.8,86,0.01,,,0.08,WUHU216HW,2013-06-10 04:12:00,
2013-06-09 23:17:00,64.1,59.9,29.79,East,90,1.8,2.5,86,0.01,,,0.08,WUHU216HW,2013-06-10 04:17:00,
2013-06-09 23:22:00,64.1,60.5,29.79,NE,45,1.1,2.5,88,0.01,,,0.08,WUHU216HW,2013-06-10 04:22:00,
2013-06-09 23:27:00,64.1,60.5,29.79,NE,45,2.0,2.5,88,0.00,,,0.08,WUHU216HW,2013-06-10 04:27:00,
2013-06-09 23:32:00,64.1,60.8,29.79,NNE,23,1.6,2.5,89,0.00,,,0.08,WUHU216HW,2013-06-10 04:32:00,
2013-06-09 23:37:00,63.9,60.7,29.79,ENE,68,2.2,2.5,89,0.00,,,0.08,WUHU216HW,2013-06-10 04:37:00,
2013-06-09 23:42:00,63.9,60.7,29.79,NNE,23,1.8,2.2,89,0.00,,,0.08,WUHU216HW,2013-06-10 04:42:00,
2013-06-09 23:47:00,63.7,60.8,29.78,NNE,23,2.2,2.5,90,0.00,,,0.08,WUHU216HW,2013-06-10 04:47:00,
2013-06-09 23:52:00,63.7,60.8,29.79,NNE,23,1.6,2.7,90,0.00,,,0.08,WUHU216HW,2013-06-10 04:52:00,
2013-06-09 23:57:00,63.7,60.8,29.78,NNE,23,1.8,2.7,90,0.00,,,0.08,WUHU216HW,2013-06-10 04:57:00,